CTV101 WIHH-WIPB

Flight info

Callsign CTV101
Flight time 0h 51m
Altitude 28000
Route RIMTI M766 TKG W11 ALADO
Aircraft A320/M-SDE3FGHIRWY/LB1

Departure

Time 2026-04-15 02:35
Airport Halim Perdanakusuma International Airport (WIHH)

Arrival

Time 2026-04-15 03:26
Airport Silampari Airport (WIPB)
Time Latitude Longitude Altitude Speed Heading
2026-04-15 02:14 -6.26627 106.88570 0 ft 0 kts 336°
2026-04-15 02:18 -6.26628 106.88570 0 ft 0 kts 336°
2026-04-15 02:24 -6.26637 106.88574 73 ft 4 kts 338°
2026-04-15 02:24 -6.26662 106.88582 79 ft 4 kts 356°
2026-04-15 02:24 -6.26686 106.88578 93 ft 4 kts 53°
2026-04-15 02:25 -6.26690 106.88573 95 ft 0 kts 65°
2026-04-15 02:28 -6.26676 106.88603 94 ft 10 kts 65°
2026-04-15 02:28 -6.26655 106.88647 94 ft 8 kts 65°
2026-04-15 02:28 -6.26633 106.88696 95 ft 9 kts 65°
2026-04-15 02:28 -6.26607 106.88751 95 ft 8 kts 65°
2026-04-15 02:29 -6.26581 106.88809 96 ft 9 kts 65°
2026-04-15 02:29 -6.26555 106.88864 96 ft 8 kts 65°
2026-04-15 02:29 -6.26528 106.88922 94 ft 12 kts 65°
2026-04-15 02:29 -6.26500 106.88985 94 ft 8 kts 69°
2026-04-15 02:30 -6.26503 106.89038 95 ft 9 kts 109°
2026-04-15 02:30 -6.26524 106.89093 96 ft 8 kts 110°
2026-04-15 02:30 -6.26546 106.89153 97 ft 9 kts 110°
2026-04-15 02:30 -6.26563 106.89200 96 ft 10 kts 110°
2026-04-15 02:31 -6.26580 106.89279 96 ft 11 kts 82°
2026-04-15 02:31 -6.26546 106.89361 95 ft 15 kts 65°
2026-04-15 02:31 -6.26498 106.89465 94 ft 18 kts 65°
2026-04-15 02:31 -6.26447 106.89577 96 ft 18 kts 65°
2026-04-15 02:32 -6.26395 106.89689 95 ft 18 kts 65°
2026-04-15 02:32 -6.26337 106.89814 96 ft 20 kts 65°
2026-04-15 02:32 -6.26276 106.89945 98 ft 21 kts 65°
2026-04-15 02:32 -6.26212 106.90084 96 ft 22 kts 65°
2026-04-15 02:33 -6.26153 106.90195 97 ft 14 kts 48°
2026-04-15 02:33 -6.26107 106.90235 97 ft 5 kts 68°
2026-04-15 02:33 -6.26127 106.90255 97 ft 6 kts 179°
2026-04-15 02:33 -6.26149 106.90224 97 ft 5 kts 246°
2026-04-15 02:34 -6.26162 106.90195 97 ft 4 kts 246°
2026-04-15 02:34 -6.26188 106.90135 97 ft 26 kts 245°
2026-04-15 02:34 -6.26374 106.89735 96 ft 97 kts 245°
2026-04-15 02:34 -6.26740 106.88942 97 ft 152 kts 245°
2026-04-15 02:35 -6.27224 106.87890 451 ft 165 kts 245°
2026-04-15 02:35 -6.27688 106.86850 1164 ft 163 kts 247°
2026-04-15 02:35 -6.28156 106.85767 1619 ft 180 kts 246°
2026-04-15 02:35 -6.28709 106.84550 1937 ft 202 kts 245°
2026-04-15 02:36 -6.29325 106.83186 2240 ft 227 kts 251°
2026-04-15 02:36 -6.29584 106.81543 2608 ft 251 kts 267°
2026-04-15 02:36 -6.29670 106.79733 3202 ft 265 kts 267°
2026-04-15 02:36 -6.29748 106.77863 4059 ft 270 kts 268°
2026-04-15 02:37 -6.29800 106.76583 4651 ft 272 kts 268°
2026-04-15 02:37 -6.29879 106.74670 5532 ft 276 kts 267°
2026-04-15 02:37 -6.29960 106.72736 6398 ft 279 kts 267°
2026-04-15 02:37 -6.30044 106.70777 7248 ft 282 kts 267°
2026-04-15 02:38 -6.30323 106.68824 8066 ft 285 kts 251°
2026-04-15 02:38 -6.31250 106.67058 8858 ft 288 kts 234°
2026-04-15 02:38 -6.32410 106.65408 9645 ft 290 kts 234°
2026-04-15 02:38 -6.33587 106.63742 10325 ft 298 kts 234°
2026-04-15 02:39 -6.34834 106.61980 10516 ft 321 kts 234°
2026-04-15 02:39 -6.36144 106.60125 10904 ft 335 kts 234°
2026-04-15 02:39 -6.37514 106.58172 11546 ft 340 kts 234°
2026-04-15 02:39 -6.38879 106.56218 12207 ft 344 kts 234°
2026-04-15 02:40 -6.40210 106.54207 12870 ft 348 kts 240°
2026-04-15 02:40 -6.41150 106.51951 13500 ft 353 kts 253°
2026-04-15 02:40 -6.41572 106.49544 14114 ft 357 kts 266°
2026-04-15 02:40 -6.41395 106.47045 14702 ft 363 kts 283°
2026-04-15 02:41 -6.40448 106.44691 15288 ft 368 kts 301°
2026-04-15 02:41 -6.38778 106.42735 15865 ft 372 kts 321°
2026-04-15 02:41 -6.36530 106.41435 16413 ft 377 kts 340°
2026-04-15 02:41 -6.33968 106.40844 16964 ft 380 kts 350°
2026-04-15 02:42 -6.31357 106.40382 17520 ft 383 kts 350°
2026-04-15 02:42 -6.28722 106.39918 18059 ft 386 kts 350°
2026-04-15 02:42 -6.26068 106.39450 18594 ft 389 kts 350°
2026-04-15 02:42 -6.23393 106.38976 19117 ft 392 kts 350°
2026-04-15 02:43 -6.20697 106.38494 19640 ft 395 kts 350°
2026-04-15 02:43 -6.17981 106.38003 20142 ft 398 kts 350°
2026-04-15 02:43 -6.15246 106.37508 20644 ft 401 kts 350°
2026-04-15 02:43 -6.12512 106.36909 21126 ft 404 kts 343°
2026-04-15 02:44 -6.09910 106.35813 21627 ft 407 kts 331°
2026-04-15 02:44 -6.07564 106.34208 22092 ft 410 kts 320°
2026-04-15 02:44 -6.05566 106.32152 22561 ft 413 kts 309°
2026-04-15 02:44 -6.03789 106.29871 23016 ft 416 kts 308°
2026-04-15 02:45 -6.01998 106.27575 23462 ft 418 kts 309°
2026-04-15 02:45 -6.00194 106.25274 23887 ft 421 kts 309°
2026-04-15 02:45 -5.98374 106.22960 24307 ft 423 kts 309°
2026-04-15 02:45 -5.96548 106.20637 24708 ft 425 kts 309°
2026-04-15 02:46 -5.94709 106.18297 25066 ft 428 kts 309°
2026-04-15 02:46 -5.92859 106.15944 25391 ft 431 kts 309°
2026-04-15 02:46 -5.90992 106.13572 25724 ft 434 kts 309°
2026-04-15 02:46 -5.89111 106.11185 26058 ft 437 kts 309°
2026-04-15 02:47 -5.87220 106.08782 26383 ft 440 kts 309°
2026-04-15 02:47 -5.85322 106.06363 26677 ft 442 kts 309°
2026-04-15 02:47 -5.83413 106.03924 26982 ft 445 kts 309°
2026-04-15 02:47 -5.81494 106.01475 27279 ft 447 kts 309°
2026-04-15 02:48 -5.79473 105.99097 27567 ft 449 kts 316°
2026-04-15 02:48 -5.77232 105.96904 27834 ft 451 kts 317°
2026-04-15 02:48 -5.74985 105.94719 27917 ft 445 kts 317°
2026-04-15 02:48 -5.72785 105.92579 27926 ft 442 kts 317°
2026-04-15 02:49 -5.70546 105.90402 27916 ft 452 kts 317°
2026-04-15 02:49 -5.68262 105.88183 27920 ft 461 kts 317°
2026-04-15 02:49 -5.65938 105.85923 27922 ft 470 kts 317°
2026-04-15 02:49 -5.63572 105.83621 27922 ft 477 kts 317°
2026-04-15 02:50 -5.61175 105.81287 27924 ft 483 kts 316°
2026-04-15 02:50 -5.58755 105.78928 27914 ft 486 kts 316°
2026-04-15 02:50 -5.56331 105.76564 27915 ft 486 kts 316°
2026-04-15 02:50 -5.53904 105.74200 27926 ft 487 kts 316°
2026-04-15 02:51 -5.51471 105.71831 27920 ft 487 kts 317°
2026-04-15 02:51 -5.49039 105.69467 27915 ft 487 kts 317°
2026-04-15 02:51 -5.46602 105.67102 27916 ft 487 kts 317°
2026-04-15 02:51 -5.44199 105.64702 27912 ft 488 kts 312°
2026-04-15 02:52 -5.42206 105.61950 27925 ft 489 kts 300°
2026-04-15 02:52 -5.40794 105.58850 27910 ft 489 kts 290°
2026-04-15 02:52 -5.39610 105.55648 27923 ft 489 kts 290°
2026-04-15 02:52 -5.38422 105.52451 27912 ft 489 kts 291°
2026-04-15 02:53 -5.37228 105.49257 27912 ft 489 kts 291°
2026-04-15 02:53 -5.36029 105.46057 27908 ft 490 kts 291°
2026-04-15 02:53 -5.34828 105.42862 27902 ft 490 kts 291°
2026-04-15 02:53 -5.33627 105.39668 27901 ft 490 kts 291°
2026-04-15 02:54 -5.32426 105.36469 27911 ft 490 kts 291°
2026-04-15 02:54 -5.31224 105.33270 27902 ft 490 kts 291°
2026-04-15 02:54 -5.30023 105.30076 27909 ft 490 kts 291°
2026-04-15 02:54 -5.28821 105.26874 27910 ft 490 kts 291°
2026-04-15 02:55 -5.27624 105.23675 27908 ft 490 kts 291°
2026-04-15 02:55 -5.26319 105.20519 27901 ft 490 kts 298°
2026-04-15 02:55 -5.24489 105.17653 27902 ft 488 kts 309°
2026-04-15 02:55 -5.22272 105.15075 27914 ft 488 kts 312°
2026-04-15 02:56 -5.20033 105.12512 27906 ft 488 kts 312°
2026-04-15 02:56 -5.17797 105.09952 27910 ft 488 kts 312°
2026-04-15 02:56 -5.15560 105.07386 27906 ft 488 kts 312°
2026-04-15 02:56 -5.13330 105.04822 27905 ft 488 kts 312°
2026-04-15 02:57 -5.11099 105.02257 27911 ft 488 kts 312°
2026-04-15 02:57 -5.08869 104.99696 27904 ft 488 kts 312°
2026-04-15 02:57 -5.06635 104.97130 27918 ft 488 kts 312°
2026-04-15 02:57 -5.04403 104.94564 27904 ft 488 kts 312°
2026-04-15 02:58 -5.02172 104.91997 27904 ft 488 kts 312°
2026-04-15 02:58 -4.99941 104.89432 27909 ft 488 kts 312°
2026-04-15 02:58 -4.97711 104.86872 27910 ft 488 kts 312°
2026-04-15 02:58 -4.95471 104.84305 27912 ft 488 kts 312°
2026-04-15 02:59 -4.93235 104.81744 27906 ft 488 kts 312°
2026-04-15 02:59 -4.90998 104.79179 27907 ft 488 kts 312°
2026-04-15 02:59 -4.88765 104.76614 27914 ft 488 kts 312°
2026-04-15 02:59 -4.86532 104.74044 27908 ft 488 kts 312°
2026-04-15 03:00 -4.84303 104.71480 27908 ft 488 kts 312°
2026-04-15 03:00 -4.82068 104.68913 27919 ft 488 kts 312°
2026-04-15 03:00 -4.79833 104.66349 27907 ft 488 kts 312°
2026-04-15 03:00 -4.77600 104.63787 27920 ft 488 kts 312°
2026-04-15 03:01 -4.75363 104.61220 27911 ft 488 kts 312°
2026-04-15 03:01 -4.73127 104.58657 27909 ft 489 kts 313°
2026-04-15 03:01 -4.70889 104.56090 27904 ft 489 kts 312°
2026-04-15 03:01 -4.68544 104.53633 27907 ft 488 kts 318°
2026-04-15 03:02 -4.66071 104.51309 27909 ft 488 kts 318°
2026-04-15 03:02 -4.63624 104.49015 27905 ft 488 kts 318°
2026-04-15 03:02 -4.61147 104.46694 27905 ft 488 kts 318°
2026-04-15 03:02 -4.58639 104.44335 27914 ft 488 kts 318°
2026-04-15 03:03 -4.56202 104.42039 27917 ft 488 kts 318°
2026-04-15 03:03 -4.53729 104.39714 27907 ft 488 kts 318°
2026-04-15 03:03 -4.51253 104.37388 27910 ft 488 kts 318°
2026-04-15 03:03 -4.48777 104.35063 27907 ft 488 kts 318°
2026-04-15 03:04 -4.46298 104.32735 27912 ft 488 kts 318°
2026-04-15 03:04 -4.43824 104.30415 27914 ft 488 kts 318°
2026-04-15 03:04 -4.41343 104.28088 27913 ft 488 kts 318°
2026-04-15 03:04 -4.38866 104.25763 27921 ft 488 kts 318°
2026-04-15 03:05 -4.36392 104.23435 27908 ft 488 kts 318°
2026-04-15 03:05 -4.33915 104.21104 27908 ft 488 kts 318°
2026-04-15 03:05 -4.31440 104.18779 27921 ft 488 kts 318°
2026-04-15 03:05 -4.28956 104.16449 27909 ft 488 kts 318°
2026-04-15 03:06 -4.26480 104.14127 27917 ft 488 kts 318°
2026-04-15 03:06 -4.24001 104.11800 27918 ft 488 kts 318°
2026-04-15 03:06 -4.21524 104.09473 27930 ft 488 kts 318°
2026-04-15 03:06 -4.19052 104.07146 27927 ft 488 kts 318°
2026-04-15 03:07 -4.16576 104.04816 27931 ft 488 kts 318°
2026-04-15 03:07 -4.14098 104.02486 27934 ft 488 kts 318°
2026-04-15 03:07 -4.11621 104.00161 27937 ft 488 kts 318°
2026-04-15 03:07 -4.09143 103.97838 27939 ft 488 kts 318°
2026-04-15 03:08 -4.06663 103.95515 27939 ft 488 kts 318°
2026-04-15 03:08 -4.04181 103.93189 27940 ft 488 kts 318°
2026-04-15 03:08 -4.01703 103.90867 27940 ft 488 kts 318°
2026-04-15 03:08 -3.99221 103.88542 27945 ft 489 kts 318°
2026-04-15 03:09 -3.96738 103.86215 27941 ft 489 kts 318°
2026-04-15 03:09 -3.94256 103.83889 27943 ft 489 kts 318°
2026-04-15 03:09 -3.91777 103.81561 27944 ft 489 kts 318°
2026-04-15 03:09 -3.89297 103.79232 27947 ft 489 kts 318°
2026-04-15 03:10 -3.86815 103.76904 27948 ft 489 kts 318°
2026-04-15 03:10 -3.84328 103.74573 27446 ft 490 kts 318°
2026-04-15 03:10 -3.81846 103.72246 26720 ft 488 kts 318°
2026-04-15 03:10 -3.79368 103.69918 25994 ft 488 kts 318°
2026-04-15 03:11 -3.76897 103.67598 25265 ft 487 kts 318°
2026-04-15 03:11 -3.74428 103.65280 24543 ft 486 kts 318°
2026-04-15 03:11 -3.71959 103.62965 23817 ft 486 kts 318°
2026-04-15 03:11 -3.69494 103.60656 23094 ft 486 kts 318°
2026-04-15 03:12 -3.67015 103.58340 22368 ft 488 kts 318°
2026-04-15 03:12 -3.64522 103.56012 21640 ft 492 kts 317°
2026-04-15 03:12 -3.62039 103.53689 20910 ft 485 kts 317°
2026-04-15 03:12 -3.59599 103.51402 20185 ft 477 kts 317°
2026-04-15 03:13 -3.57200 103.49147 19457 ft 469 kts 317°
2026-04-15 03:13 -3.54838 103.46928 18732 ft 463 kts 316°
2026-04-15 03:13 -3.52503 103.44738 18006 ft 457 kts 316°
2026-04-15 03:13 -3.50194 103.42578 17277 ft 453 kts 316°
2026-04-15 03:14 -3.47898 103.40432 16558 ft 451 kts 316°
2026-04-15 03:14 -3.45612 103.38298 15834 ft 447 kts 316°
2026-04-15 03:14 -3.43352 103.36189 15099 ft 438 kts 316°
2026-04-15 03:14 -3.42637 103.35521 14848 ft 431 kts 316°
2026-04-15 03:15 -3.41140 103.34123 14343 ft 417 kts 316°
2026-04-15 03:15 -3.39068 103.32182 13626 ft 399 kts 316°
2026-04-15 03:15 -3.37082 103.30318 12903 ft 384 kts 316°
2026-04-15 03:15 -3.35171 103.28525 12179 ft 370 kts 316°
2026-04-15 03:16 -3.33325 103.26796 11454 ft 358 kts 316°
2026-04-15 03:16 -3.31551 103.25137 11088 ft 338 kts 316°
2026-04-15 03:16 -3.29870 103.23563 10959 ft 325 kts 316°
2026-04-15 03:16 -3.28277 103.22071 10949 ft 301 kts 316°
2026-04-15 03:17 -3.26772 103.20663 10488 ft 293 kts 316°
2026-04-15 03:17 -3.25302 103.19286 9987 ft 286 kts 316°
2026-04-15 03:17 -3.23865 103.17941 9486 ft 280 kts 316°
2026-04-15 03:17 -3.22459 103.16626 9073 ft 270 kts 316°
2026-04-15 03:18 -3.21128 103.15384 8752 ft 259 kts 316°
2026-04-15 03:18 -3.19825 103.14164 8287 ft 253 kts 316°
2026-04-15 03:18 -3.18985 103.13375 8042 ft 249 kts 316°
2026-04-15 03:18 -3.17292 103.11789 7548 ft 249 kts 316°
2026-04-15 03:19 -3.16453 103.11004 7299 ft 250 kts 316°
2026-04-15 03:19 -3.15182 103.09811 6934 ft 250 kts 316°
2026-04-15 03:19 -3.13921 103.08633 6538 ft 245 kts 317°
2026-04-15 03:19 -3.12697 103.07488 6171 ft 237 kts 317°
2026-04-15 03:20 -3.11511 103.06381 5810 ft 230 kts 316°
2026-04-15 03:20 -3.10360 103.05305 5452 ft 223 kts 316°
2026-04-15 03:20 -3.09241 103.04256 5105 ft 217 kts 316°
2026-04-15 03:20 -3.08187 103.03200 4713 ft 214 kts 305°
2026-04-15 03:21 -3.07551 103.01882 4291 ft 211 kts 282°
2026-04-15 03:21 -3.07924 102.99084 3912 ft 208 kts 240°
2026-04-15 03:21 -3.08868 102.97976 3538 ft 212 kts 217°
2026-04-15 03:22 -3.10179 102.97318 3220 ft 212 kts 194°
2026-04-15 03:22 -3.11615 102.96979 2927 ft 212 kts 197°
2026-04-15 03:22 -3.13009 102.96544 2765 ft 207 kts 198°
2026-04-15 03:22 -3.14371 102.96107 2602 ft 204 kts 198°
2026-04-15 03:23 -3.15688 102.95680 2465 ft 193 kts 198°
2026-04-15 03:23 -3.16911 102.95284 2275 ft 177 kts 199°
2026-04-15 03:23 -3.18035 102.94922 2139 ft 165 kts 199°
2026-04-15 03:23 -3.19103 102.94578 1998 ft 158 kts 198°
2026-04-15 03:24 -3.20126 102.94249 1862 ft 152 kts 199°
2026-04-15 03:24 -3.21119 102.93931 1666 ft 148 kts 198°
2026-04-15 03:24 -3.22093 102.93618 1452 ft 145 kts 198°
2026-04-15 03:24 -3.23051 102.93309 1267 ft 144 kts 198°
2026-04-15 03:25 -3.24001 102.93002 1078 ft 143 kts 198°
2026-04-15 03:25 -3.24936 102.92701 899 ft 143 kts 197°
2026-04-15 03:25 -3.25882 102.92396 717 ft 143 kts 197°
2026-04-15 03:25 -3.26839 102.92089 543 ft 143 kts 197°
2026-04-15 03:26 -3.27768 102.91781 380 ft 142 kts 198°
2026-04-15 03:26 -3.28647 102.91503 327 ft 112 kts 197°
2026-04-15 03:26 -3.29106 102.91356 330 ft 33 kts 198°
2026-04-15 03:26 -3.29319 102.91286 330 ft 29 kts 198°
2026-04-15 03:27 -3.29476 102.91236 331 ft 23 kts 198°
2026-04-15 03:27 -3.29610 102.91193 331 ft 16 kts 198°
2026-04-15 03:27 -3.29668 102.91188 332 ft 7 kts 168°
2026-04-15 03:27 -3.29701 102.91182 330 ft 3 kts 237°
2026-04-15 03:28 -3.29688 102.91171 327 ft 4 kts 341°
2026-04-15 03:28 -3.29634 102.91184 331 ft 12 kts 18°
2026-04-15 03:28 -3.29533 102.91217 330 ft 19 kts 19°
2026-04-15 03:28 -3.29391 102.91263 331 ft 23 kts 18°
2026-04-15 03:29 -3.29231 102.91314 329 ft 25 kts 18°
2026-04-15 03:29 -3.29058 102.91369 328 ft 27 kts 18°
2026-04-15 03:29 -3.28873 102.91429 325 ft 29 kts 18°
2026-04-15 03:29 -3.28675 102.91493 324 ft 30 kts 17°
2026-04-15 03:30 -3.28508 102.91546 325 ft 16 kts 18°
2026-04-15 03:30 -3.28442 102.91555 326 ft 7 kts 336°
2026-04-15 03:30 -3.28419 102.91514 328 ft 8 kts 287°
2026-04-15 03:30 -3.28403 102.91461 329 ft 7 kts 287°
2026-04-15 03:31 -3.28398 102.91417 325 ft 6 kts 261°
2026-04-15 03:31 -3.28389 102.91380 329 ft 4 kts 290°
2026-04-15 03:31 -3.28382 102.91358 326 ft 2 kts 287°
2026-04-15 03:31 -3.28378 102.91347 327 ft 1 kts 287°
2026-04-15 03:32 -3.28377 102.91343 328 ft 0 kts 287°